EW5835 Weather Reports


Display with metric or nautical units.
time (UTC)temp
F
wind
direction
speed
MPH
gust
MPH
rain 1hr
in
rain 24hr
in
rain mn
in
humidity
%
barometer
mb
20260509204658 53 251 0.0 0.0 0.03 0.88 0.87 96 1010.1
20260509204158 53 245 0.0 0.0 0.04 0.88 0.87 96 1010.2
20260509203659 53 245 0.0 0.0 0.04 0.88 0.87 96 1010.2
20260509203158 53 245 0.0 0.0 0.04 0.88 0.87 96 1010.3
20260509202658 53 345 0.0 0.0 0.04 0.87 0.86 96 1010.3
20260509202157 53 8 0.0 0.0 0.04 0.87 0.86 96 1010.4
20260509201656 53 59 0.0 0.0 0.05 0.87 0.86 96 1010.3
20260509201156 53 54 0.0 0.0 0.07 0.87 0.86 96 1010.5
20260509200656 53 54 0.0 0.0 0.07 0.87 0.86 96 1010.6
20260509200157 52 54 0.0 0.0 0.06 0.86 0.85 96 1010.6
20260509195656 52 54 0.0 0.0 0.06 0.86 0.85 96 1010.8
20260509195156 52 54 0.0 0.0 0.05 0.85 0.84 96 1010.9
20260509194656 52 51 0.0 0.0 0.05 0.85 0.84 96 1010.9
20260509194201 51 106 0.0 0.0 0.05 0.84 0.83 96 1011.1
20260509194155 52 104 0.0 0.0 0.04 0.84 0.83 96 1011.0
20260509193656 51 87 0.0 0.0 0.05 0.84 0.83 96 1011.0
20260509192656 51 92 0.0 0.0 0.05 0.83 0.82 96 1011.2
20260509192154 51 92 0.0 0.0 0.07 0.83 0.82 96 1011.3
20260509191654 51 93 0.0 0.0 0.06 0.82 0.81 96 1011.2
20260509191155 0 0.0 0.0 0.04 0.80 0.79 1011.2
20260509190653 0 0.0 0.0 0.06 0.80 0.79 1011.1
20260509190153 0 0.0 0.0 0.06 0.80 0.79 1011.3
20260509185652 51 118 0.0 0.0 0.07 0.80 0.79 96 1011.3
20260509185157 50 96 0.0 0.0 0.10 0.80 0.79 96 1011.6
20260509185152 51 118 0.0 0.0 0.08 0.80 0.79 96 1011.3
20260509184651 51 131 0.0 0.0 0.09 0.80 0.79 96 1011.6
20260509183650 50 94 0.0 0.0 0.10 0.79 0.78 96 1011.7
20260509183151 50 83 0.0 0.0 0.12 0.79 0.78 96 1011.6
20260509182652 50 120 0.0 0.0 0.12 0.78 0.77 96 1011.5
20260509182150 0 0.0 0.0 0.10 0.76 0.75 1011.6
20260509181649 50 94 0.0 0.0 0.11 0.76 0.75 96 1011.5
20260509181148 50 94 0.0 0.0 0.12 0.76 0.75 96 1011.5
20260509180649 50 118 0.0 0.0 0.11 0.74 0.74 96 1011.5
20260509180150 50 83 0.0 0.0 0.12 0.74 0.73 96 1011.3
20260509175648 49 86 0.0 0.0 0.11 0.73 0.72 96 1011.2
20260509175148 49 96 0.0 0.0 0.11 0.72 0.71 96 1011.3
20260509174646 49 93 0.0 0.0 0.10 0.71 0.70 95 1011.2
20260509174148 49 87 0.0 0.0 0.10 0.70 0.69 95 1011.2
20260509173648 49 89 0.0 0.0 0.09 0.69 0.68 95 1011.3
20260509173146 49 87 0.0 0.0 0.08 0.67 0.67 95 1011.2
20260509172648 49 87 0.0 0.0 0.07 0.66 0.65 95 1011.2
20260509172147 49 87 0.0 0.0 0.09 0.66 0.65 95 1011.2
20260509171646 49 87 0.0 0.0 0.08 0.65 0.64 95 1011.2
20260509171152 49 87 0.0 0.0 0.06 0.63 0.62 95 1011.3
20260509171146 49 87 0.0 0.0 0.07 0.64 0.63 95 1011.3
20260509170146 49 96 0.0 0.0 0.06 0.62 0.61 95 1011.3
20260509165646 49 97 0.0 0.0 0.07 0.62 0.61 95 1011.3
20260509165146 49 96 0.0 0.0 0.06 0.61 0.60 95 1011.3
20260509164645 49 87 0.0 0.0 0.07 0.61 0.60 95 1011.5
20260509164149 49 100 0.0 0.0 0.08 0.60 0.59 95 1011.7
20260509164144 49 100 0.0 0.0 0.08 0.60 0.59 95 1011.7
20260509163145 49 89 0.0 0.0 0.07 0.59 0.58 95 1011.7
20260509162643 49 104 0.0 0.0 0.08 0.59 0.58 95 1011.8
20260509162145 49 266 0.0 0.0 0.07 0.57 0.56 95 1011.9
20260509161643 49 266 0.0 0.0 0.08 0.57 0.56 95 1011.9
20260509161142 49 266 0.0 0.0 0.08 0.57 0.56 95 1012.0
20260509160642 49 266 0.0 0.0 0.09 0.57 0.56 95 1012.1
20260509160141 49 266 0.0 0.0 0.09 0.56 0.55 95 1012.2
20260509155645 49 220 0.0 0.0 0.09 0.55 0.54 95 1012.2
20260509155142 49 220 0.0 0.0 0.09 0.55 0.54 95 1012.1
20260509154642 49 219 0.0 0.0 0.09 0.54 0.53 95 1012.2
20260509154142 49 254 0.0 0.0 0.08 0.52 0.51 95 1012.2
20260509153640 49 254 0.0 0.0 0.09 0.52 0.51 95 1012.2
20260509153146 48 254 0.0 0.0 0.09 0.51 0.50 95 1012.3
20260509153142 48 254 0.0 0.0 0.09 0.52 0.51 95 1012.3
20260509152146 48 104 0.0 0.0 0.08 0.48 0.47 96 1012.5
20260509152139 48 259 0.0 0.0 0.09 0.50 0.49 95 1012.5
20260509151640 48 248 0.0 0.0 0.08 0.49 0.48 95 1012.5
20260509151139 48 248 0.0 53.0 0.09 0.49 0.48 95 1012.4
20260509150748 48 104 0.0 0.0 0.08 0.47 0.46 96 1012.5
20260509145639 48 104 0.0 0.0 0.07 0.46 0.45 96 1012.7
20260509145138 48 104 0.0 0.0 0.08 0.46 0.45 96 1012.6
20260509144648 48 103 0.0 0.0 0.07 0.44 0.43 96 1012.7
20260509144640 48 103 0.0 0.0 0.08 0.45 0.44 96 1012.6
20260509144150 48 103 0.0 0.0 0.07 0.44 0.43 96 1012.7
20260509143637 47 103 0.0 0.0 0.06 0.43 0.43 96 1012.7
20260509143138 47 103 0.0 0.0 0.07 0.43 0.42 96 1012.6
20260509142637 47 103 0.0 0.0 0.07 0.42 0.41 96 1012.5
20260509142138 47 103 0.0 0.0 0.06 0.41 0.40 96 1012.6
20260509141636 47 103 0.0 0.0 0.07 0.41 0.40 96 1012.7
20260509141142 47 103 0.0 0.0 0.07 0.40 0.39 96 1012.8
20260509141138 47 103 0.0 0.0 0.06 0.40 0.39 96 1012.8
20260509140136 47 103 0.0 0.0 0.06 0.39 0.38 96 1012.8
20260509135637 47 92 0.0 0.0 0.06 0.39 0.38 96 1012.8
20260509135141 46 92 0.0 0.0 0.04 0.37 0.36 95 1012.8
20260509135136 46 92 0.0 0.0 0.05 0.38 0.37 95 1012.9
20260509134135 46 92 0.0 0.0 0.04 0.37 0.36 95 1012.7
20260509133636 46 83 0.0 0.0 0.05 0.37 0.36 95 1012.8
20260509133136 46 83 0.0 0.0 0.04 0.36 0.35 96 1012.7
20260509132635 46 117 0.0 0.0 0.03 0.35 0.34 96 1012.8
20260509132135 46 228 0.0 0.0 0.03 0.35 0.34 95 1012.7
20260509131635 45 228 0.0 0.0 0.02 0.34 0.33 95 1012.7
20260509131140 45 100 0.0 0.0 0.01 0.33 0.32 95 1012.5
20260509131136 45 228 0.0 0.0 0.02 0.34 0.33 95 1012.6
20260509130135 45 100 0.0 0.0 0.01 0.33 0.32 95 1012.4
20260509125633 45 100 0.0 0.0 0.01 0.33 0.32 96 1012.4
20260509125139 45 100 0.0 0.0 0.01 0.33 0.32 95 1012.5
20260509125135 45 100 0.0 0.0 0.01 0.33 0.32 95 1012.5
20260509124139 45 107 0.0 0.0 0.00 0.32 0.31 95 1012.5
20260509124134 45 107 0.0 0.0 0.01 0.33 0.32 95 1012.5
20260509123133 45 113 0.0 0.0 0.00 0.32 0.31 95 1012.7
20260509122633 45 113 0.0 0.0 0.00 0.32 0.31 95 1012.6
20260509122134 45 97 0.0 0.0 0.00 0.32 0.31 95 1012.6
20260509121632 45 96 0.0 0.0 0.00 0.32 0.31 95 1012.6
20260509121142 44 144 0.0 0.0 0.01 0.32 0.31 95 1012.8
20260509121133 44 113 0.0 0.0 0.00 0.32 0.31 95 1012.7
20260509120634 44 113 0.0 0.0 0.00 0.32 0.31 95 1012.7
20260509115632 44 144 0.0 0.0 0.01 0.32 0.31 95 1012.8
20260509115131 44 144 0.0 0.0 0.01 0.32 0.31 95 1012.8
20260509114631 44 144 0.0 0.0 0.01 0.32 0.31 95 1012.9
20260509114134 44 144 0.0 0.0 0.02 0.32 0.31 95 1012.8
20260509113632 44 144 0.0 0.0 0.02 0.32 0.31 95 1012.9
20260509113132 44 144 0.0 0.0 0.02 0.32 0.31 95 1012.8
20260509112632 44 144 0.0 0.0 0.02 0.32 0.31 95 1012.8
20260509112131 44 144 0.0 0.0 0.02 0.32 0.31 95 1012.6
20260509111632 44 144 0.0 0.0 0.02 0.32 0.31 95 1012.7
20260509111131 44 144 0.0 0.0 0.02 0.32 0.31 95 1012.8
20260509110632 43 144 0.0 0.0 0.02 0.32 0.31 95 1012.8
20260509110130 44 179 0.0 0.0 0.01 0.31 0.30 95 1012.8
20260509105631 44 179 0.0 0.0 0.02 0.31 0.30 95 1012.8
20260509105132 43 179 0.0 0.0 0.02 0.31 0.30 95 1012.7
20260509104631 43 179 0.0 0.0 0.02 0.31 0.30 95 1012.7
20260509104134 43 111 0.0 0.0 0.02 0.30 0.29 95 1012.8
20260509104130 43 179 0.0 0.0 0.02 0.30 0.29 95 1012.8
20260509103130 43 118 0.0 0.0 0.02 0.30 0.29 95 1012.8
20260509102629 43 118 0.0 0.0 0.03 0.30 0.29 95 1012.7
20260509102129 43 118 0.0 0.0 0.03 0.30 0.29 95 1012.7
20260509101629 43 118 0.0 0.0 0.03 0.30 0.29 94 1012.8
20260509101132 43 118 0.0 0.0 0.04 0.30 0.29 94 1012.7
20260509101128 43 118 0.0 0.0 0.04 0.30 0.29 94 1012.7
20260509100747 43 121 0.0 0.0 0.04 0.29 0.28 94 1012.9
20260509100126 43 120 0.0 0.0 0.05 0.30 0.29 94 1012.8
20260509095128 43 121 0.0 0.0 0.05 0.29 0.28 94 1013.0
20260509094627 43 121 0.0 0.0 0.06 0.29 0.28 94 1013.1
20260509094125 43 121 0.0 0.0 0.05 0.28 0.27 94 1013.2
20260509093625 43 120 0.0 0.0 0.05 0.28 0.27 94 1013.2
20260509093125 43 120 0.0 0.0 0.06 0.28 0.27 94 1013.0
20260509092627 0 0.0 0.0 0.05 0.27 0.26 1013.0
20260509092125 43 120 0.0 0.0 0.05 0.27 0.26 94 1013.0
20260509091625 43 120 0.0 0.0 0.06 0.27 0.26 94 1012.9
20260509091123 43 120 0.0 0.0 0.06 0.26 0.25 94 1013.0
20260509090624 43 120 0.0 0.0 0.07 0.26 0.25 94 1012.8
20260509090132 42 120 0.0 0.0 0.07 0.23 0.22 93 1013.0
20260509090125 42 120 0.0 0.0 0.08 0.25 0.24 94 1013.0
20260509085622 42 121 0.0 0.0 0.08 0.25 0.24 94 1013.0
20260509085124 42 120 0.0 0.0 0.07 0.24 0.23 93 1013.0
20260509084123 42 120 0.0 0.0 0.08 0.23 0.22 93 1012.9
20260509083625 42 120 0.0 0.0 0.09 0.22 0.21 93 1012.7
20260509083621 42 120 0.0 0.0 0.09 0.23 0.22 93 1012.9
20260509082622 42 121 0.0 0.0 0.10 0.22 0.21 93 1012.7
20260509082122 42 127 0.0 0.0 0.10 0.21 0.21 93 1012.7
20260509081621 42 127 0.0 0.0 0.11 0.21 0.20 93 1013.0
20260509081121 42 127 0.0 0.0 0.11 0.20 0.19 92 1013.1
20260509080621 42 127 0.0 0.0 0.11 0.19 0.18 92 1013.2
20260509080127 42 127 0.0 0.0 0.13 0.17 0.16 92 1013.2
20260509080121 42 127 0.0 0.0 0.10 0.17 0.16 92 1013.1
20260509075620 42 127 0.0 0.0 0.12 0.17 0.16 92 1013.1
20260509074619 42 127 0.0 0.0 0.15 0.16 0.15 91 1013.3
20260509074119 42 127 0.0 0.0 0.15 0.15 0.14 91 1013.3
20260509073620 42 127 0.0 0.0 0.14 0.14 0.13 91 1013.4
20260509073120 42 113 0.0 0.0 0.13 0.13 0.12 91 1013.4
20260509072619 42 316 0.0 0.0 0.12 0.12 0.11 90 1013.4
20260509072119 42 137 0.0 0.0 0.11 0.11 0.10 89 1013.4
20260509071620 42 137 0.0 0.0 0.10 0.10 0.09 89 1013.4
20260509071119 42 206 0.0 0.0 0.09 0.09 0.08 89 1013.4
20260509070620 42 255 0.0 0.0 0.08 0.08 0.07 88 1013.5
20260509070119 42 255 0.0 0.0 0.07 0.07 0.06 86 1013.3
20260509065619 43 255 0.0 0.0 0.05 0.05 0.04 85 1013.3
20260509065118 43 255 0.0 0.0 0.04 0.04 0.03 85 1013.1
20260509064619 43 255 0.0 0.0 0.01 0.01 0.00 84 1013.1
20260509064118 43 255 0.0 0.0 0.00 0.00 0.00 82 1013.0
20260509063624 43 176 0.0 0.0 0.00 0.00 0.00 82 1012.8
20260509063617 43 176 0.0 0.0 0.00 0.00 0.00 82 1012.8
20260509063116 43 176 0.0 0.0 0.00 0.00 0.00 82 1012.8
20260509062116 43 176 0.0 0.0 0.00 0.00 0.00 82 1012.7
20260509061617 43 176 0.0 0.0 0.00 0.00 0.00 82 1012.8
20260509061116 43 176 0.0 0.0 0.00 0.00 0.00 82 1012.8
20260509060615 0 0.0 0.0 0.00 0.00 0.00 1012.7
20260509060116 43 176 0.0 0.0 0.00 0.00 0.00 82 1012.9
20260509055614 43 176 0.0 0.0 0.00 0.00 0.00 82 1013.0
20260509055115 43 176 0.0 0.0 0.00 0.00 0.00 82 1013.1
20260509054617 43 165 0.0 0.0 0.00 0.00 0.00 83 1013.2
20260509054613 43 165 0.0 0.0 0.00 0.00 0.00 82 1013.0
20260509054227 43 165 0.0 0.0 0.00 0.00 0.00 82 1013.2
20260509053112 42 244 0.0 0.0 0.00 0.00 0.00 82 1013.2
20260509052612 42 244 0.0 0.0 0.00 0.00 0.00 82 1013.3
20260509052114 42 244 0.0 0.0 0.00 0.00 0.00 82 1013.4
20260509051614 42 244 0.0 0.0 0.00 0.00 0.00 82 1013.3
20260509051113 42 244 0.0 0.0 0.00 0.00 0.00 82 1013.4
20260509050612 42 244 0.0 0.0 0.00 0.00 0.00 82 1013.5
20260509050117 42 265 0.0 0.0 0.00 0.00 0.00 83 1013.5
20260509050113 42 265 0.0 0.0 0.00 0.00 0.00 82 1013.5
20260509045113 42 266 0.0 0.0 0.00 0.00 0.00 83 1013.7
20260509044616 41 266 0.0 0.0 0.00 0.00 0.00 83 1013.6
20260509044612 41 266 0.0 0.0 0.00 0.00 0.00 83 1013.6
20260509043611 41 266 0.0 0.0 0.00 0.00 0.00 83 1013.5
20260509043110 41 266 0.0 0.0 0.00 0.00 0.00 83 1013.5
20260509042619 41 266 0.0 0.0 0.00 0.00 0.00 83 1013.5
20260509042610 41 266 0.0 0.0 0.00 0.00 0.00 82 1013.4
20260509042111 41 266 0.0 0.0 0.00 0.00 0.00 82 1013.4
20260509041612 41 266 0.0 0.0 0.00 0.00 0.00 82 1013.4
20260509041110 41 266 0.0 0.0 0.00 0.00 0.00 83 1013.3
20260509040110 41 266 0.0 0.0 0.00 0.00 0.00 83 1013.4
20260509035610 41 266 0.0 0.0 0.00 0.00 0.02 83 1013.6
20260509035115 41 266 0.0 0.0 0.00 0.00 0.02 83 1013.5
20260509035110 41 266 0.0 0.0 0.00 0.00 0.02 83 1013.5
20260509034610 41 266 0.0 0.0 0.00 0.00 0.02 83 1013.4
20260509033614 40 266 0.0 0.0 0.00 0.00 0.02 82 1013.4
20260509033609 40 266 0.0 0.0 0.00 0.00 0.02 83 1013.4
20260509033225 40 266 0.0 0.0 0.00 0.00 0.02 81 1013.4
20260509032608 40 266 0.0 0.0 0.00 0.00 0.02 82 1013.3
20260509031609 40 266 0.0 0.0 0.00 0.00 0.02 81 1013.4
20260509031113 41 266 0.0 0.0 0.00 0.00 0.02 82 1013.3
20260509031109 40 266 0.0 0.0 0.00 0.00 0.02 81 1013.3
20260509030722 41 266 0.0 0.0 0.00 0.00 0.02 81 1013.2
20260509025613 41 266 0.0 0.0 0.00 0.00 0.02 81 1013.2
20260509025608 41 266 0.0 0.0 0.00 0.00 0.02 82 1013.3
20260509024607 41 266 0.0 0.0 0.00 0.00 0.02 81 1013.3
20260509024107 41 266 0.0 0.0 0.00 0.00 0.02 81 1013.3
20260509023612 41 269 0.0 0.0 0.00 0.00 0.02 81 1013.3
20260509023608 41 269 0.0 0.0 0.00 0.00 0.02 81 1013.3
20260509022607 41 269 0.0 0.0 0.00 0.00 0.02 81 1013.4
20260509022108 41 269 0.0 0.0 0.00 0.00 0.02 80 1013.4
20260509021607 41 269 0.0 0.0 0.00 0.00 0.02 80 1013.6
20260509021106 41 269 0.0 0.0 0.00 0.00 0.02 80 1013.5
20260509020606 42 269 0.0 0.0 0.00 0.00 0.02 79 1013.5
20260509020112 42 269 0.0 0.0 0.00 0.00 0.02 77 1013.5
20260509020106 42 269 0.0 0.0 0.00 0.00 0.02 79 1013.4
20260509015720 42 20 0.0 0.0 0.00 0.00 0.02 77 1013.4
20260509014604 43 20 0.0 0.0 0.00 0.00 0.02 77 1013.3
20260509014105 43 27 0.0 0.0 0.00 0.00 0.02 76 1013.1
20260509013605 43 27 0.0 0.0 0.00 0.00 0.02 76 1013.0
20260509013104 43 28 0.0 0.0 0.00 0.00 0.02 74 1012.8
20260509012604 44 28 0.0 0.0 0.00 0.00 0.02 72 1012.8
20260509012108 44 28 0.0 0.0 0.00 0.00 0.02 71 1012.7
20260509012104 44 28 0.0 0.0 0.00 0.00 0.02 72 1012.8
20260509011718 45 331 0.0 0.0 0.00 0.00 0.02 72 1012.5
20260509011105 45 30 0.0 0.0 0.00 0.00 0.02 71 1012.5
20260509010714 45 306 0.0 0.0 0.00 0.00 0.02 72 1012.5
20260509005603 45 266 0.0 0.0 0.00 0.00 0.02 71 1012.5
20260509005105 46 241 0.0 0.0 0.00 0.00 0.02 68 1012.4
20260509004602 46 241 0.0 0.0 0.00 0.00 0.02 68 1012.4
20260509004107 46 241 0.0 0.0 0.00 0.00 0.02 63 1012.1
20260509004103 46 241 0.0 0.0 0.00 0.00 0.02 67 1012.2
20260509003103 47 241 0.0 0.0 0.00 0.00 0.02 63 1012.0
20260509002609 48 241 0.0 0.0 0.00 0.00 0.02 57 1011.6
20260509002603 47 240 0.0 0.0 0.00 0.00 0.02 63 1011.8
20260509002103 48 241 0.0 0.0 0.00 0.00 0.02 57 1011.7
20260509001105 50 240 0.0 0.0 0.00 0.00 0.02 57 1011.6
20260509001101 49 241 0.0 0.0 0.00 0.00 0.02 57 1011.7
20260509000716 50 241 0.0 0.0 0.00 0.00 0.02 54 1011.6
20260508235602 51 240 0.0 0.0 0.00 0.00 0.02 55 1011.6
20260508235101 51 240 0.0 0.0 0.00 0.00 0.02 52 1011.6
20260508234602 52 240 0.0 0.0 0.00 0.00 0.02 48 1011.5
20260508234101 53 240 0.0 0.0 0.00 0.00 0.02 48 1011.6
20260508233601 53 240 0.0 0.0 0.00 0.00 0.02 48 1011.5
20260508233100 54 240 0.0 0.0 0.00 0.00 0.02 45 1011.3
20260508232602 54 243 0.0 0.0 0.00 0.00 0.02 45 1011.2
20260508232101 55 261 0.0 0.0 0.00 0.00 0.02 44 1011.3
20260508231601 55 264 0.0 0.0 0.00 0.00 0.02 44 1011.2
20260508231059 55 250 0.0 0.0 0.00 0.00 0.02 43 1011.2
20260508230606 56 159 0.0 0.0 0.00 0.00 0.02 42 1011.0
20260508230559 56 68 0.0 0.0 0.00 0.00 0.02 42 1011.1
20260508230059 56 313 0.0 0.0 0.00 0.00 0.02 42 1011.0
20260508225059 56 204 0.0 0.0 0.00 0.00 0.02 42 1010.9
20260508224559 56 278 0.0 0.0 0.00 0.00 0.02 42 1011.0
20260508224100 56 266 0.0 0.0 0.00 0.00 0.02 42 1011.0
20260508223559 56 357 0.0 0.0 0.00 0.00 0.02 41 1010.9
20260508223103 57 303 0.0 4.0 0.00 0.00 0.02 41 1010.8
20260508223059 56 244 0.0 0.0 0.00 0.00 0.02 41 1011.1
20260508222059 57 275 0.0 4.0 0.00 0.00 0.02 40 1010.7
20260508221604 57 329 0.0 4.0 0.00 0.00 0.02 40 1010.8
20260508221101 58 266 0.0 1.0 0.00 0.00 0.02 39 1010.7
20260508221057 57 189 0.0 1.0 0.00 0.00 0.02 39 1010.7
20260508220057 57 245 0.0 0.0 0.00 0.00 0.02 40 1010.8
20260508215059 57 261 0.0 1.0 0.00 0.00 0.02 40 1010.8
20260508214558 57 309 0.0 4.0 0.00 0.00 0.02 40 1010.8
20260508214058 56 259 0.0 4.0 0.00 0.00 0.02 40 1010.9
20260508213556 56 226 0.0 2.0 0.00 0.00 0.02 40 1010.9
20260508213056 56 6 0.0 2.0 0.00 0.00 0.02 40 1010.9
20260508212557 56 144 0.0 1.0 0.00 0.00 0.02 40 1011.0
20260508212057 57 345 0.0 4.0 0.00 0.00 0.02 40 1010.9
20260508211557 56 340 1.0 4.0 0.00 0.00 0.02 41 1010.9
20260508211100 56 271 0.0 0.0 0.00 0.00 0.02 42 1010.8
20260508211056 56 324 0.0 0.0 0.00 0.00 0.02 42 1010.8
20260508210056 56 68 0.0 0.0 0.00 0.00 0.02 42 1010.9
20260508205556 56 252 0.0 0.0 0.00 0.00 0.02 41 1010.9